Wind_Speed
36 36 36 36 40 45 48 49 50 53 57 52 51 50 45 43 40 41 40 41 45 46 42 42 43 38 37 37 37 38 37 38
31 41 43 39 38 40 44 48 47 49 52 56 52 52 51 45 41 41 44 43 47 48 47 39 40 41 40 39 38 40 39 38
35 39 47 46 35 39 41 45 43 46 49 52 52 51 51 48 45 45 49 46 48 49 46 48 44 42 40 41 40 39 41 39
38 40 45 44 39 35 40 46 48 49 50 52 53 54 52 49 47 49 48 49 50 50 48 51 48 46 46 44 41 42 42 41
53 48 41 44 42 37 37 43 49 52 55 54 53 55 53 51 51 52 51 51 53 53 51 54 51 48 49 46 45 45 44 42
51 52 40 33 42 42 38 44 43 49 50 53 54 54 54 54 55 56 56 55 54 55 54 56 55 54 49 46 45 49 49 43
53 52 46 41 43 45 43 44 46 46 49 50 52 52 53 56 56 58 59 58 57 58 59 60 59 55 52 51 50 50 52 48
61 57 52 48 44 43 45 46 49 49 41 44 47 49 50 52 52 50 51 53 56 59 61 63 59 56 57 57 51 54 56 58
52 58 55 53 54 53 50 50 48 43 40 43 46 46 47 49 48 49 49 51 54 58 58 58 55 50 57 63 62 58 57 56
60 63 64 60 61 60 60 54 56 59 52 46 48 49 49 47 49 49 50 51 53 56 56 55 51 56 49 60 64 58 61 61
48 71 73 71 68 63 66 55 60 52 47 47 52 54 55 53 55 56 55 57 58 59 58 58 56 58 61 59 50 58 53 58
57 53 53 53 75 66 79 67 63 58 54 52 54 59 50 55 57 58 61 62 61 63 64 63 57 54 54 46 51 52 49 46
54 55 56 55 60 51 57 67 62 51 51 50 54 56 52 54 59 62 59 58 56 57 61 62 61 58 57 52 52 55 54 54
57 59 61 60 53 55 55 48 50 48 53 53 55 56 53 51 55 51 51 50 47 46 48 48 49 48 48 48 50 52 50 47
60 57 53 45 46 43 40 30 42 44 43 41 50 49 50 53 56 58 53 48 43 37 36 37 38 40 44 46 45 46 49 48
69 67 66 68 66 58 52 57 59 46 49 38 38 43 54 56 48 48 49 53 40 35 38 39 38 40 41 43 45 44 45 47
68 69 75 78 76 72 71 72 72 63 57 60 60 49 43 40 42 48 45 39 36 36 41 42 41 41 44 46 47 47 48 50
63 65 69 70 72 71 69 65 57 67 65 56 63 65 59 52 44 42 39 39 38 40 41 44 45 44 46 49 49 51 55 56
59 60 64 66 64 61 57 49 54 45 51 67 60 59 62 58 60 59 57 56 50 50 51 51 50 49 50 52 54 58 60 63
Wind_Direction
297 287 272 253 253 255 253 253 254 256 257 256 258 263 261 261 264 265 268 268 272 274 277 278 278 280 276 273 274 275 276 280
286 292 283 269 253 253 255 254 254 254 255 258 256 259 259 259 258 261 263 265 269 274 281 280 277 275 274 274 273 275 277 278
285 267 269 276 269 255 252 255 253 254 255 256 256 254 255 253 251 254 260 265 269 273 277 279 277 274 274 271 273 276 277 279
268 265 273 277 281 273 259 255 257 255 254 255 255 256 254 254 255 254 266 264 267 271 272 273 273 273 272 272 272 273 274 278
279 278 278 283 285 275 268 261 257 253 252 252 254 255 255 255 255 255 257 259 263 267 271 273 274 274 273 272 272 275 280 280
268 271 277 270 277 276 261 260 259 259 252 248 252 254 255 256 256 255 254 256 261 266 267 268 271 272 271 272 274 277 280 280
258 265 266 261 266 272 268 257 255 253 252 248 249 252 255 256 257 259 258 260 261 264 265 263 268 269 268 269 276 284 277 276
255 256 254 263 255 260 267 262 258 249 254 247 249 251 252 255 256 260 261 261 263 263 262 266 271 272 267 269 277 283 283 276
258 254 250 250 251 253 253 262 273 237 244 247 247 248 249 253 255 257 258 260 261 262 266 268 269 270 266 268 271 275 280 275
264 265 258 252 244 245 247 255 250 262 257 248 250 248 247 246 249 250 253 256 259 262 264 267 269 273 271 276 269 274 278 279
277 267 259 253 240 239 241 241 251 253 251 248 251 254 249 247 247 248 248 250 253 256 260 262 261 264 268 270 281 271 277 276
275 266 280 257 235 236 244 239 242 246 248 262 262 257 257 258 257 257 256 253 251 254 256 258 259 262 267 267 268 275 279 277
273 273 269 271 273 264 253 235 233 249 255 256 252 253 259 263 263 260 259 257 257 260 261 262 265 267 269 275 280 281 279 280
267 269 265 255 264 261 268 274 251 259 254 258 252 253 266 260 266 265 264 260 257 259 261 262 262 264 265 272 277 280 279 278
254 259 267 257 252 247 245 254 267 248 245 254 260 262 261 259 262 264 266 263 256 264 274 275 278 279 276 278 282 283 281 280
266 256 258 265 265 259 257 270 283 270 270 264 285 292 266 259 257 262 264 262 260 264 269 272 273 274 277 279 279 282 281 276
268 267 269 276 277 276 280 282 282 280 279 270 283 279 283 273 272 264 264 268 270 263 262 264 268 271 272 274 279 283 282 280
271 270 272 278 281 285 285 285 287 285 282 276 280 284 281 277 275 270 274 277 276 272 270 269 269 269 269 268 268 267 268 272
274 271 269 271 275 278 281 280 278 279 284 283 276 280 283 284 283 283 282 281 277 276 277 275 275 270 268 266 266 265 267 268
Height
5754 5756 5759 5763 5763 5762 5763 5764 5765 5765 5765 5769 5770 5771 5775 5778 5780 5780 5779 5780 5780 5779 5780 5780 5778 5778 5777 5776 5776 5776 5775 5775
5749 5744 5743 5748 5753 5754 5755 5753 5756 5755 5756 5755 5759 5762 5763 5767 5770 5770 5769 5770 5769 5771 5770 5768 5769 5769 5768 5767 5767 5767 5766 5766
5740 5736 5729 5733 5743 5744 5744 5743 5743 5743 5744 5743 5745 5748 5750 5754 5757 5759 5758 5758 5758 5760 5761 5758 5759 5760 5759 5758 5758 5758 5757 5757
5724 5723 5721 5723 5728 5732 5732 5734 5733 5732 5732 5732 5733 5733 5736 5742 5747 5749 5748 5747 5747 5749 5750 5747 5749 5750 5750 5749 5748 5748 5747 5748
5712 5711 5715 5714 5715 5718 5718 5718 5717 5717 5719 5720 5721 5723 5726 5730 5734 5737 5736 5735 5735 5737 5738 5737 5739 5739 5738 5738 5738 5737 5737 5737
5696 5697 5704 5704 5702 5702 5705 5702 5704 5704 5705 5707 5708 5710 5713 5716 5720 5723 5722 5723 5724 5724 5726 5726 5727 5727 5727 5727 5727 5727 5726 5726
5681 5682 5689 5694 5691 5689 5691 5691 5690 5689 5690 5694 5696 5699 5701 5703 5707 5709 5710 5711 5711 5712 5713 5713 5713 5715 5716 5716 5715 5715 5715 5714
5666 5667 5671 5680 5678 5677 5677 5678 5678 5675 5675 5678 5683 5686 5688 5690 5692 5694 5696 5698 5700 5699 5700 5700 5701 5703 5703 5702 5702 5702 5702 5702
5651 5650 5657 5661 5666 5667 5665 5663 5664 5654 5662 5665 5669 5672 5674 5677 5679 5681 5684 5686 5687 5686 5686 5686 5688 5690 5690 5689 5688 5687 5688 5687
5637 5637 5643 5647 5652 5654 5653 5650 5653 5649 5652 5654 5656 5657 5659 5662 5665 5667 5669 5671 5673 5673 5674 5674 5676 5675 5674 5676 5674 5674 5672 5671
5625 5620 5619 5626 5632 5633 5635 5637 5635 5637 5639 5640 5641 5643 5644 5646 5648 5652 5655 5658 5658 5658 5660 5662 5665 5665 5663 5663 5659 5657 5658 5658
5611 5611 5608 5606 5606 5607 5615 5617 5620 5624 5627 5627 5627 5629 5633 5634 5636 5638 5640 5642 5643 5643 5645 5647 5649 5648 5648 5647 5647 5647 5646 5644
5598 5597 5595 5598 5599 5599 5601 5601 5603 5610 5614 5616 5616 5617 5619 5622 5623 5624 5625 5627 5629 5630 5630 5632 5633 5633 5633 5632 5632 5631 5630 5628
5584 5583 5584 5582 5585 5587 5587 5591 5591 5595 5598 5599 5603 5604 5604 5607 5610 5610 5611 5612 5612 5613 5614 5614 5615 5616 5618 5618 5618 5616 5616 5615
5571 5572 5575 5574 5572 5570 5573 5577 5582 5580 5581 5583 5588 5591 5592 5594 5594 5597 5598 5598 5598 5599 5600 5600 5601 5601 5603 5604 5603 5602 5602 5602
5554 5560 5563 5560 5558 5560 5559 5560 5564 5568 5571 5570 5573 5576 5577 5580 5580 5581 5582 5584 5584 5586 5587 5589 5589 5589 5590 5590 5590 5591 5591 5589
5543 5547 5544 5540 5541 5545 5544 5544 5547 5552 5556 5559 5558 5564 5563 5563 5566 5566 5567 5568 5570 5573 5575 5576 5577 5577 5577 5576 5576 5576 5575 5573
5531 5532 5529 5526 5526 5525 5527 5530 5529 5530 5535 5544 5543 5543 5547 5550 5553 5554 5556 5556 5557 5560 5563 5565 5564 5563 5561 5561 5561 5560 5558 5556
5511 5513 5512 5514 5512 5513 5512 5512 5513 5517 5516 5520 5528 5529 5531 5535 5536 5538 5541 5544 5545 5548 5550 5550 5550 5549 5547 5546 5545 5543 5541 5539